Weather reports worldwide

Advertisment
St. James's Park, United Kingdom (3770): temperature & dewpoint: 14.10.2017 22:00:00 - 20.10.2017 22:00:00 (BST)St. James's Park, United Kingdom (3770): temperature -20cm & temperature -100cm: 14.10.2017 22:00:00 - 20.10.2017 22:00:00 (BST)St. James's Park, United Kingdom (3770): precipitation: 14.10.2017 22:00:00 - 20.10.2017 22:00:00 (BST)
Date & Time tt [°C] td [°C] tt -20cm [°C] tt -100cm [°C] rr [mm]
20.10.2017 22:00:00 13,5 9,5 - - -
20.10.2017 21:00:00 12,9 9,0 - - 0,0
20.10.2017 20:00:00 12,9 8,4 - - 0,0
20.10.2017 19:00:00 12,6 7,3 - - 0,0
20.10.2017 18:00:00 13,1 6,2 - - 0,0
20.10.2017 17:00:00 13,5 6,1 - - 0,0
20.10.2017 16:00:00 15,0 6,5 - - 0,0
20.10.2017 15:00:00 14,6 7,7 - - 0,0
20.10.2017 14:00:00 14,5 9,3 - - 0,0
20.10.2017 13:00:00 13,8 9,3 - - 0,0
20.10.2017 12:00:00 13,4 9,5 - - 0,0
20.10.2017 11:00:00 13,2 9,9 - - 0,0
20.10.2017 10:00:00 13,0 10,5 15,2 13,7 0,0
20.10.2017 09:00:00 13,0 10,9 - - 0,0
20.10.2017 08:00:00 12,6 11,2 - - 0,0
20.10.2017 07:00:00 12,4 11,2 - - 0,2
20.10.2017 06:00:00 13,0 11,1 - - 0,2
20.10.2017 05:00:00 12,5 11,5 - - 0,4
20.10.2017 04:00:00 12,8 10,7 - - 0,0
20.10.2017 03:00:00 13,0 10,1 - - 0,0
20.10.2017 02:00:00 13,1 10,4 - - 0,0
20.10.2017 01:00:00 13,8 11,6 - - 0,0
20.10.2017 00:00:00 14,1 12,8 - - 0,4
19.10.2017 23:00:00 14,0 12,4 - - 0,6
19.10.2017 22:00:00 15,2 12,4 - - 0,2
19.10.2017 21:00:00 16,1 13,0 - - 0,2
19.10.2017 20:00:00 16,0 13,5 - - 0,0
19.10.2017 19:00:00 15,5 12,8 - - 0,0
19.10.2017 18:00:00 15,9 13,0 - - 0,0
19.10.2017 17:00:00 16,4 14,1 - - 0,0
19.10.2017 16:00:00 16,6 14,7 - - 0,0
19.10.2017 15:00:00 16,9 14,4 - - 0,0
19.10.2017 14:00:00 17,2 14,2 - - 0,0
19.10.2017 13:00:00 16,7 14,5 - - 0,0
19.10.2017 12:00:00 16,1 15,1 - - 0,2
19.10.2017 11:00:00 16,2 15,5 - - 0,0
19.10.2017 10:00:00 15,7 15,4 15,2 - 0,0
19.10.2017 09:00:00 15,1 14,9 - - 0,0
19.10.2017 08:00:00 14,8 14,6 - - 0,0
19.10.2017 07:00:00 14,7 14,5 - - 0,0
19.10.2017 06:00:00 14,5 14,2 - - 0,0
19.10.2017 05:00:00 14,7 14,3 - - 0,0
19.10.2017 04:00:00 14,4 14,0 - - 0,0
19.10.2017 03:00:00 15,1 14,7 - - 0,2
19.10.2017 02:00:00 15,1 14,5 - - 0,0
19.10.2017 01:00:00 15,5 14,9 - - 2,8
19.10.2017 00:00:00 15,7 14,9 - - 0,0
18.10.2017 23:00:00 15,5 14,8 - - 0,0
18.10.2017 22:00:00 15,9 15,3 - - 0,0
18.10.2017 21:00:00 15,6 14,9 - - 0,2
18.10.2017 20:00:00 15,5 14,7 - - 0,0
18.10.2017 19:00:00 15,5 14,7 - - 0,0
18.10.2017 18:00:00 15,3 14,1 - - 0,0
18.10.2017 17:00:00 15,3 13,9 - - 0,0
18.10.2017 16:00:00 14,8 13,7 - - 0,0
18.10.2017 15:00:00 14,5 12,7 - - 0,0
18.10.2017 14:00:00 14,1 12,8 - - 0,0
18.10.2017 13:00:00 13,2 12,2 - - 1,6
18.10.2017 12:00:00 12,7 11,5 - - 0,6
18.10.2017 11:00:00 12,7 11,0 - - 0,4
18.10.2017 10:00:00 12,6 10,4 15,0 - 0,0
18.10.2017 09:00:00 12,4 10,1 - - 0,4
18.10.2017 08:00:00 12,4 9,2 - - 0,0
18.10.2017 07:00:00 12,8 8,5 - - 0,0
18.10.2017 06:00:00 12,6 8,6 - - 0,0
18.10.2017 05:00:00 12,7 7,8 - - 0,0
18.10.2017 04:00:00 12,7 7,4 - - 0,0
18.10.2017 03:00:00 12,7 7,8 - - 0,0
18.10.2017 02:00:00 12,7 7,5 - - 0,0
18.10.2017 01:00:00 13,1 7,4 - - 0,0
18.10.2017 00:00:00 12,8 7,8 - - 0,0
17.10.2017 23:00:00 11,2 7,0 - - 0,0
17.10.2017 22:00:00 12,1 6,9 - - 0,0
17.10.2017 21:00:00 12,0 7,4 - - 0,0
17.10.2017 20:00:00 12,5 7,3 - - 0,0
17.10.2017 19:00:00 12,9 7,6 - - 0,0
17.10.2017 18:00:00 13,6 7,4 - - 0,0
17.10.2017 17:00:00 13,9 7,2 - - 0,0
17.10.2017 16:00:00 14,2 6,5 - - 0,0
17.10.2017 15:00:00 14,4 7,2 - - 0,0
17.10.2017 14:00:00 14,3 7,5 - - 0,0
17.10.2017 13:00:00 14,2 7,3 - - 0,0
17.10.2017 12:00:00 14,5 7,0 - - 0,0
17.10.2017 11:00:00 14,4 8,4 - - 0,0
17.10.2017 10:00:00 13,1 7,7 15,2 - 0,0
17.10.2017 09:00:00 12,3 7,5 - - 0,0
17.10.2017 08:00:00 11,5 7,2 - - 0,0
17.10.2017 07:00:00 11,8 7,3 - - 0,0
17.10.2017 06:00:00 12,0 7,6 - - 0,0
17.10.2017 05:00:00 12,0 7,7 - - 0,0
17.10.2017 04:00:00 12,5 7,5 - - 0,0
17.10.2017 03:00:00 13,1 8,4 - - 0,0
17.10.2017 02:00:00 13,4 8,1 - - 0,0
17.10.2017 01:00:00 13,7 7,7 - - 0,0
17.10.2017 00:00:00 14,3 7,9 - - 0,0
16.10.2017 23:00:00 14,7 8,2 - - 0,0
16.10.2017 22:00:00 15,1 8,6 - - 0,0
16.10.2017 21:00:00 15,1 9,1 - - 0,0
16.10.2017 20:00:00 15,4 9,1 - - 0,0
16.10.2017 19:00:00 16,1 9,8 - - 0,0
16.10.2017 18:00:00 16,8 10,5 - - 0,0
16.10.2017 17:00:00 17,5 10,1 - - 0,0
16.10.2017 16:00:00 18,9 13,3 - - 0,0
16.10.2017 15:00:00 20,1 14,8 - - 0,0
16.10.2017 14:00:00 21,3 15,2 - - 0,0
16.10.2017 13:00:00 22,0 14,9 - - 0,0
16.10.2017 12:00:00 22,6 15,2 - - 0,0
16.10.2017 11:00:00 21,6 15,1 - - 0,0
16.10.2017 10:00:00 19,0 16,7 15,5 - 0,0
16.10.2017 09:00:00 16,4 15,9 - - 0,0
16.10.2017 08:00:00 15,4 15,1 - - 0,0
16.10.2017 07:00:00 15,6 15,4 - - 0,0
16.10.2017 06:00:00 15,1 14,9 - - 0,0
16.10.2017 05:00:00 14,2 13,9 - - 0,0
16.10.2017 04:00:00 14,2 13,9 - - 0,0
16.10.2017 03:00:00 14,1 13,7 - - 0,0
16.10.2017 02:00:00 14,2 13,3 - - 0,0
16.10.2017 01:00:00 15,2 14,3 - - 0,0
16.10.2017 00:00:00 15,6 14,2 - - 0,0
15.10.2017 23:00:00 15,1 13,7 - - 0,0
15.10.2017 22:00:00 13,5 12,6 - - 0,0
15.10.2017 21:00:00 13,7 12,3 - - 0,0
15.10.2017 20:00:00 15,3 12,9 - - 0,0
15.10.2017 19:00:00 16,0 13,0 - - 0,0
15.10.2017 18:00:00 17,0 13,0 - - 0,0
15.10.2017 17:00:00 18,3 13,1 - - 0,0
15.10.2017 16:00:00 19,5 13,3 - - 0,0
15.10.2017 15:00:00 19,6 13,2 - - 0,0
15.10.2017 14:00:00 20,1 14,1 - - 0,0
15.10.2017 13:00:00 19,7 13,9 - - 0,0
15.10.2017 12:00:00 18,1 14,4 - - 0,0
15.10.2017 11:00:00 16,8 14,4 - - 0,0
15.10.2017 10:00:00 16,1 14,1 15,5 - 0,0
15.10.2017 09:00:00 15,1 13,7 - - 0,0
15.10.2017 08:00:00 15,0 13,7 - - 0,0
15.10.2017 07:00:00 14,2 14,0 - - 0,0
15.10.2017 06:00:00 12,6 12,4 - - 0,0
15.10.2017 05:00:00 12,6 12,4 - - 0,0
15.10.2017 04:00:00 12,1 11,9 - - 0,0
15.10.2017 03:00:00 12,0 11,7 - - 0,0
15.10.2017 02:00:00 12,2 11,9 - - 0,0
15.10.2017 01:00:00 12,4 12,0 - - 0,0
15.10.2017 00:00:00 12,9 12,2 - - 0,0
14.10.2017 23:00:00 13,6 12,5 - - 0,0
14.10.2017 22:00:00 14,9 13,7 - - 0,0

tt = temperature
td = dewpoint
tt -20cm = temperature -20cm
tt -100cm = temperature -100cm
rr = precipitation

Next stations